レモン彗星

C/2018 EF9 ( Lemmon )

English version
Home page
Updated on May 20, 2019

---------------------------------------------------------------------

・ プロフィール

発見日 2018年3月9日
発見光度 20.7等
発見者 A. R. Gibbs (Mount Lemmon)

・ 写真集

・ 軌道要素

Epoch 2018 June 11.0 TT = JDT 2458280.5
T 2018 May 23.13007 TT                                  MPCW
q   1.5566299            (2000.0)            P               Q
z  +0.0015592      Peri.   72.61780     -0.30764081     +0.94276858
 +/-0.0000044      Node   172.57784     -0.42286504     -0.25656446
e   0.9975729      Incl.   84.69430     +0.85237450     +0.21298378
From 170 observations 2018 Mar. 9-Sept. 11, mean residual 0".6.

・ 星図

・ 光度変化

        m1 =  17.0 + 5 logΔ +  10.0 log r  [   ,-31]  (              〜2018年 4月22日)
        m1 = -81   + 5 logΔ + 480   log r  [-31, 31]  (2018年 4月22日〜2018年 6月23日)
        m1 =  17.0 + 5 logΔ +  10.0 log r  [ 31,   ]  (2018年 6月23日〜              )

---------------------------------------------------------------------

軌道要素はM.P.E.C. 2018-S50に掲載されたものです。
光度グラフはComet for Windowsで作成したものです。

---------------------------------------------------------------------

Copyright(C) Seiichi Yoshida (comet@aerith.net). All rights reserved.